Location: Krasnoyarskiy Pitomnik
(51.1333°N, 71.6167°E)
Time: 00:28:10
(UTC+00:00)

ONEWEB-0721 - Visible Passes

Search period start: 12 October 2024 00:00
Search period end: 22 October 2024 00:00
Orbit: 603 x 615 km, 86.7° (Epoch: 11 October)

Date Brightness Start Highest point End Pass type
(mag) Time Alt. Az. Time Alt. Az. Time Alt. Az.
12 Oct ? 13:56:55 10° SW 14:00:48 31° WNW 14:04:43 10° NNW visible
12 Oct ? 23:58:44 10° N 00:02:54 43° E 00:07:01 10° SSE visible
13 Oct ? 14:11:40 10° WSW 14:15:01 21° WNW 14:18:22 10° NNW visible
14 Oct ? 00:12:38 10° N 00:16:58 68° E 00:21:15 10° SSE visible
14 Oct ? 14:26:49 10° WSW 14:29:15 15° WNW 14:31:41 10° NW visible
14 Oct ? 22:50:57 10° NE 22:53:11 14° ENE 22:55:24 10° E visible
15 Oct ? 00:26:37 10° N 00:30:58 79° W 00:35:15 10° S visible
15 Oct ? 13:01:08 10° S 13:05:28 71° W 13:09:51 10° N visible
15 Oct ? 23:04:09 10° NNE 23:07:22 20° ENE 23:10:34 10° ESE visible
16 Oct ? 00:40:39 10° NNW 00:44:51 50° W 00:49:00 10° SSW visible
16 Oct ? 13:15:16 10° SSW 13:19:27 46° W 13:23:40 10° N visible
16 Oct ? 23:17:39 10° NNE 23:21:28 29° ENE 23:25:14 10° SE visible
17 Oct ? 00:54:46 10° NNW 00:58:39 33° W 01:02:29 10° SSW visible
17 Oct ? 13:29:36 10° SW 13:33:27 30° WNW 13:37:20 10° NNW visible
17 Oct ? 23:31:18 10° N 23:35:27 44° E 23:39:34 10° SSE visible
18 Oct ? 13:44:10 10° WSW 13:47:29 21° WNW 13:50:48 10° NNW visible
18 Oct ? 23:45:02 10° N 23:49:21 68° E 23:53:38 10° SSE visible
19 Oct ? 13:59:08 10° WSW 14:01:32 14° WNW 14:03:56 10° NW visible
19 Oct ? 22:23:09 10° NE 22:25:24 14° ENE 22:27:37 10° E visible
19 Oct ? 23:58:49 10° N 00:03:09 78° W 00:07:27 10° S visible
20 Oct ? 22:36:11 10° NNE 22:39:24 20° ENE 22:42:35 10° ESE visible
21 Oct ? 00:12:40 10° NNW 00:16:52 50° W 00:21:01 10° SSW visible
21 Oct ? 12:47:12 10° SSW 12:51:23 46° W 12:55:35 10° N visible
21 Oct ? 22:49:30 10° NNE 22:53:18 29° ENE 22:57:04 10° SE visible
